Regional Weather Roundup
Issued by NWS

Home | Current Version | Previous Version | Graphics & Text | Print | Product List | Glossary On
Versions: 1 2 3 4 5 6 7 8 9 10 11 12 13 14 15 16 17 18 19 20 21 22 23 24 25 26 27 28 29 30 31 32 33 34 35 36 37 38 39 40 41 42 43 44 45 46 47 48 49 50
000
ASUS43 KMPX 280401
RWRMN
WEATHER ROUNDUP FOR MINNESOTA
NATIONAL WEATHER SERVICE TWIN CITIES/CHANHASSEN MN
1000 PM CST SAT DEC 27 2014


NOTE: "FAIR" INDICATES FEW OR NO CLOUDS BELOW 12,000 FEET WITH NO
SIGNIFICANT WEATHER AND/OR OBSTRUCTIONS TO VISIBILITY. N/A MEANS
CURRENT SKY AND/OR WEATHER CONDITIONS ARE NOT AVAILABLE.

MNZ060>063-068>070-280500-
   Twin Cities Metro

CITY           SKY/WX    TMP DP  RH WIND       PRES   REMARKS
TWIN CITIES    PTCLDY    12   6  77 SW6       30.12S WCI   3
ST PAUL        CLEAR     12   6  77 CALM      30.14R
CRYSTAL        CLEAR     13   7  77 SW6       30.10S WCI   4
BLAINE         CLEAR     12   9  85 SW5       30.10S WCI   4
LAKEVILLE      CLEAR     10   7  85 SW3       30.11S
EDEN PRAIRIE   CLEAR      9   5  84 SW6       30.11R WCI  -1
SOUTH ST PAUL  CLEAR     12   7  81 CALM      30.12S
LAKE ELMO      FAIR       9   5  85 SW5       30.12S WCI   0
$$
MNZ001>005-007-008-013>017-022>024-027-028-280500-
   Northwest Minnesota

CITY           SKY/WX    TMP DP  RH WIND       PRES   REMARKS
BEMIDJI        FLURRIES  17  14  90 NW7       30.00R WCI   7
HALLOCK        CLOUDY     7   1  78 N14       30.11R WCI -10
ROSEAU         CLOUDY     9   3  78 N10       30.07R WCI  -6
WARROAD        CLOUDY     7   0  72 NW10      30.07R WCI  -8
THIEF RVR FALL CLOUDY    14  10  85 N9        30.04S WCI   2
CROOKSTON      LGT SNOW  18  16  93 N7        30.07R WCI   8
FOSSTON        LGT SNOW  16  12  86 N7        30.02S WCI   6
DETROIT LAKES  CLOUDY    21  19  93 W5        30.01R WCI  15
MOORHEAD       CLOUDY    23  21  93 SW5       30.05R WCI  17
PARK RAPIDS    CLOUDY    17  14  88 SW3       29.99S
MAHNOMEN       FLURRIES  20  18  92 W7        30.01R WCI  11
$$
MNZ006-009>011-018-025>026-280500-
   North Central Minnesota

CITY           SKY/WX    TMP DP  RH WIND       PRES   REMARKS
BAUDETTE       CLOUDY     9   3  77 NW14G23   30.02R WCI  -7
FLAG ISLAND    CLEAR      0  -4  85 NW15      30.05R WCI -20
INTL FALLS     LGT SNOW  13   8  81 W9        29.98R WCI   1
WASKISH        CLOUDY    14  10  85 W6        30.01S WCI   5
BIG FORK       LGT SNOW  16  12  86 CALM      29.99S
LONGVILLE      LGT SNOW  18  16  93 SW3       30.00S
GRAND RAPIDS   CLOUDY    18  12  79 SW3       29.98S
CRANE LAKE     LGT SNOW  12   9  85 CALM      30.00S
ORR            LGT SNOW  12   9  85 W5        29.95S WCI   4
COOK           LGT SNOW  14   9  79 W8        29.98S WCI   3
WALKER         FLURRIES  18  14  84 SW3       29.99S
$$
MNZ012-019>021-037-280500-
   Northeast Minnesota

CITY           SKY/WX    TMP DP  RH WIND       PRES   REMARKS
DULUTH         PTCLDY    16   5  62 W6        29.97S WCI   7
ELY            CLOUDY    14   7  73 W8        29.95S WCI   3
HIBBING        LGT SNOW  18  10  71 W5        29.98R WCI  11
EVELETH        MIX PCPN  18  12  79 W8        29.98S WCI   7
DULUTH HARBOR  PTCLDY    25  10  54 SW8       30.04R WCI  16
TWO HARBORS    PTCLDY    21  10  63 W8        29.96R WCI  12
SILVER BAY     PTCLDY    19   9  63 CALM      29.95R
GRAND MARAIS     N/A     19   9  65 W7        29.97R WCI  10
G MARAIS ARPRT MOCLDY    10   3  72 W5        29.88S WCI   2
$$
MNZ029>031-032-039>041-046>048-054>057-064-280500-
   West Central Minnesota

CITY           SKY/WX    TMP DP  RH WIND       PRES   REMARKS
FERGUS FALLS   MOCLDY    19  16  86 SW5       30.07S WCI  13
WHEATON        CLOUDY    19  16  86 SW8       30.07S WCI   9
MORRIS         CLOUDY    19  16  86 SW7       30.04F WCI  10
ALEXANDRIA     CLOUDY    20  15  81 SW8       30.03F WCI  10
ELBOW LAKE     CLOUDY    20  17  88 SW6       30.04S WCI  12
WADENA         CLOUDY    19  18  93 SW7       30.01S WCI  10
GLENWOOD       CLOUDY    18  16  93 SW6       30.05S WCI   9
APPLETON       CLOUDY    19  14  79 SW7       30.09S WCI  10
BENSON         CLOUDY    18  12  79 SW7       30.07F WCI   8
ORTONVILLE     CLOUDY    18  12  79 SW5       30.07F WCI  11
MADISON        CLOUDY    19  16  86 SW3       30.10S
WILLMAR        CLOUDY    18  12  79 SW9       30.09S WCI   6
$$
MNZ033>034-036-042>043-049>051-058-059-280500-
   Central Minnesota

CITY           SKY/WX    TMP DP  RH WIND       PRES   REMARKS
ST CLOUD       CLOUDY    18  10  71 SW5       30.08R WCI  11
SAUK CENTRE    CLOUDY    17  14  88 SW5       30.06S WCI  10
PAYNESVILLE    CLOUDY    16  13  89 S9        30.08R WCI   4
AITKIN         CLOUDY    21  16  79 W5        30.01S WCI  15
PINE RIVER     FLURRIES  19  16  86 CALM      30.04S
BRAINERD       CLOUDY    20  15  81 SW6       30.03S WCI  12
STAPLES        CLOUDY    19  18  93 SW5       30.02S WCI  13
LONG PRAIRIE   CLOUDY    16  12  86 S6        30.04  WCI   7
LITTLE FALLS   PTCLDY    16  10  79 CALM      30.06S
LITCHFIELD     MOCLDY    14  12  92 SW5       30.09S WCI   6
BUFFALO        CLEAR      9   6  88 S3        30.11S
MAPLE LAKE     PTCLDY    11   9  90 CALM      30.10S
$$
MNZ037-044-045-052-053-280500-
   East Central Minnesota

CITY           SKY/WX    TMP DP  RH WIND       PRES   REMARKS
PRINCETON      PTCLDY    12   9  85 CALM      30.08S
MORA           CLOUDY    18  12  79 W3        30.07S
CAMBRIDGE      MOCLDY    14   7  73 SW3       30.07S
RUSH CITY      CLEAR     13   9  82 SW3       30.08S
MOOSE LAKE     CLEAR     18  10  73 CALM      30.01S
HINCKLEY       FAIR      18  12  79 CALM      30.06R
CLOQUET        CLEAR     18  10  73 W7        29.99R WCI   8
MCGREGOR       CLOUDY    21  16  79 W9        30.02S WCI  11
$$
MNZ071>073-080-081-089-090-097-098-280500-
   Southwest Minnesota

CITY           SKY/WX    TMP DP  RH WIND       PRES   REMARKS
MONTEVIDEO     CLOUDY    16  14  93 W8        30.11S WCI   5
GRANITE FALLS  MOCLDY    13  10  87 SW6       30.13R WCI   4
CANBY          MOCLDY    18  13  81 N7        30.10R WCI   8
MARSHALL       CLEAR     14   7  73 SW15      30.09S WCI  -1
REDWOOD FALLS  CLEAR     11   6  81 W6        30.12S WCI   1
OLIVIA         CLEAR     10   9  92 SW9       30.10F WCI  -2
PIPESTONE      PTCLDY     7   3  85 SW3       30.09F
WINDOM         CLEAR     10   9  92 CALM      30.12S
WORTHINGTON    CLEAR      9 N/A N/A SW6       30.12S WCI  -1
JACKSON        CLEAR     14  10  85 W8        30.13S WCI   3
TRACY          CLEAR     13   9  84 SW14      30.10F WCI  -3
SLAYTON        CLEAR     13  10  89 W13       30.10F WCI  -2
$$
MNZ065>067-074>077-082>085-091>093-280500-
   South Central Minnesota

CITY           SKY/WX    TMP DP  RH WIND       PRES   REMARKS
MANKATO        CLEAR     12   5  73 SW8       30.12S WCI   1
NEW ULM        CLEAR      5   1  85 SW6       30.12F WCI  -6
ST JAMES       CLEAR     14   9  79 SW9       30.14S WCI   2
FAIRMONT       FAIR      12   7  79 W13       30.13S WCI  -3
GLENCOE        CLEAR      9   7  89 SW5       30.11S WCI   1
FARIBAULT      CLEAR      9   5  85 S5        30.12S WCI   0
OWATONNA       CLEAR      9   5  85 SW6       30.12S WCI  -1
ALBERT LEA     CLEAR     12  10  92 SW5       30.14R WCI   4
$$
MNZ078>079-086>088-094>096-280500-
   Southeast Minnesota

CITY           SKY/WX    TMP DP  RH WIND       PRES   REMARKS
ROCHESTER      CLEAR     10   5  80 SW13      30.12S WCI  -5
RED WING       CLEAR      9   5  85 CALM      30.13S
STANTON        CLEAR     12   7  79 S5        30.12S WCI   4
DODGE CENTER   PTCLDY     9   5  85 SW9       30.10F WCI  -5
WINONA         CLEAR     14   9  79 CALM      30.18R
AUSTIN         CLEAR      9   7  92 CALM      30.14R
PRESTON        CLEAR     10   6  82 W6        30.14R WCI   1
$$
ABBREVIATIONS USED IN REMARKS
   TC - TEMPERATURES IN CELSIUS
  WCI - WIND CHILL INDEX
   HX - HEAT INDEX
  VSB - VISIBILITY
$$


USA.gov is the U.S. government's official web portal to all federal, state and local government web resources and services.